QPF
0.02 0.03 0.04 0.03 0.04 0.04 0.03 0.03 0.02 0.01 0.01 0.01 0.01 0.02 0.01 0.00 0.00 0.00 0.00 0.00 0.01 0.01 0.01 0.02 0.02 0.02 0.01 0.01 0.01 0.01 0.00 0.00 0.00 0.00 0.01 0.01 0.01 0.01 0.01 0.01 0.01 0.01 0.01
0.03 0.03 0.04 0.04 0.05 0.06 0.05 0.04 0.03 0.01 0.01 0.01 0.01 0.02 0.02 0.01 0.01 0.00 0.00 0.00 0.00 0.01 0.02 0.03 0.02 0.02 0.02 0.02 0.02 0.01 0.01 0.01 0.01 0.01 0.01 0.01 0.01 0.01 0.01 0.01 0.01 0.01 0.01
0.03 0.02 0.03 0.03 0.04 0.05 0.05 0.05 0.04 0.02 0.01 0.01 0.02 0.02 0.03 0.03 0.03 0.02 0.01 0.00 0.01 0.01 0.01 0.02 0.03 0.03 0.02 0.02 0.02 0.03 0.04 0.04 0.03 0.02 0.01 0.01 0.01 0.01 0.01 0.01 0.01 0.01 0.01
0.04 0.03 0.03 0.03 0.03 0.03 0.04 0.05 0.05 0.04 0.02 0.02 0.01 0.01 0.02 0.04 0.05 0.05 0.03 0.01 0.01 0.01 0.01 0.01 0.01 0.03 0.04 0.03 0.02 0.02 0.02 0.03 0.03 0.02 0.02 0.01 0.01 0.01 0.01 0.01 0.01 0.01 0.01
0.05 0.04 0.03 0.03 0.03 0.03 0.04 0.04 0.04 0.03 0.03 0.02 0.02 0.02 0.02 0.04 0.08 0.09 0.06 0.04 0.03 0.02 0.01 0.01 0.01 0.01 0.02 0.04 0.04 0.04 0.03 0.02 0.03 0.04 0.04 0.03 0.02 0.02 0.02 0.01 0.01 0.01 0.01
0.06 0.05 0.05 0.04 0.03 0.04 0.04 0.03 0.02 0.03 0.02 0.01 0.01 0.01 0.01 0.02 0.06 0.06 0.05 0.03 0.02 0.01 0.01 0.01 0.01 0.01 0.01 0.02 0.03 0.04 0.04 0.04 0.03 0.03 0.04 0.05 0.05 0.03 0.03 0.02 0.03 0.03 0.03
0.07 0.06 0.05 0.05 0.04 0.04 0.04 0.03 0.02 0.02 0.01 0.01 0.01 0.01 0.01 0.01 0.02 0.02 0.02 0.01 0.01 0.01 0.01 0.01 0.01 0.01 0.01 0.01 0.02 0.03 0.05 0.06 0.06 0.04 0.03 0.03 0.03 0.03 0.03 0.03 0.03 0.03 0.02
0.06 0.07 0.07 0.07 0.06 0.05 0.05 0.04 0.03 0.02 0.01 0.01 0.01 0.01 0.01 0.01 0.01 0.00 0.00 0.00 0.00 0.01 0.01 0.01 0.01 0.01 0.01 0.01 0.02 0.02 0.03 0.04 0.05 0.06 0.05 0.04 0.03 0.03 0.03 0.02 0.02 0.02 0.02
0.06 0.05 0.06 0.06 0.07 0.06 0.06 0.05 0.03 0.02 0.01 0.01 0.01 0.01 0.01 0.01 0.00 0.00 0.00 0.00 0.00 0.01 0.01 0.01 0.01 0.01 0.01 0.01 0.02 0.02 0.02 0.03 0.03 0.03 0.04 0.05 0.05 0.04 0.03 0.03 0.03 0.03 0.03
0.04 0.05 0.05 0.05 0.06 0.06 0.05 0.04 0.03 0.03 0.03 0.02 0.01 0.01 0.01 0.01 0.01 0.00 0.00 0.00 0.00 0.00 0.00 0.01 0.01 0.01 0.01 0.01 0.02 0.02 0.03 0.02 0.02 0.03 0.03 0.04 0.05 0.06 0.06 0.05 0.04 0.04 0.04
0.03 0.04 0.05 0.05 0.05 0.05 0.04 0.03 0.03 0.03 0.03 0.02 0.02 0.02 0.02 0.01 0.01 0.01 0.00 0.00 0.00 0.00 0.01 0.01 0.01 0.01 0.01 0.01 0.01 0.02 0.03 0.02 0.02 0.03 0.03 0.03 0.04 0.05 0.06 0.06 0.06 0.05 0.04
0.04 0.04 0.05 0.06 0.06 0.04 0.04 0.04 0.03 0.02 0.02 0.02 0.02 0.02 0.02 0.02 0.01 0.01 0.01 0.01 0.00 0.01 0.01 0.01 0.01 0.01 0.01 0.01 0.01 0.01 0.02 0.02 0.03 0.03 0.03 0.03 0.03 0.04 0.05 0.05 0.05 0.05 0.05
0.04 0.05 0.06 0.06 0.06 0.05 0.03 0.03 0.02 0.02 0.02 0.02 0.02 0.02 0.02 0.02 0.02 0.02 0.02 0.02 0.01 0.01 0.01 0.01 0.01 0.01 0.01 0.02 0.01 0.02 0.02 0.02 0.02 0.02 0.03 0.03 0.03 0.03 0.03 0.04 0.04 0.05 0.05
0.04 0.05 0.05 0.05 0.05 0.04 0.03 0.02 0.02 0.02 0.01 0.01 0.01 0.02 0.02 0.02 0.02 0.02 0.02 0.02 0.02 0.01 0.01 0.00 0.00 0.01 0.01 0.01 0.02 0.02 0.02 0.02 0.02 0.02 0.02 0.02 0.02 0.02 0.02 0.02 0.03 0.03 0.03
0.05 0.05 0.04 0.05 0.05 0.04 0.04 0.03 0.02 0.01 0.01 0.01 0.01 0.01 0.01 0.01 0.01 0.01 0.01 0.01 0.01 0.01 0.00 0.00 0.00 0.00 0.00 0.01 0.01 0.01 0.01 0.01 0.01 0.01 0.01 0.01 0.01 0.01 0.02 0.02 0.02 0.02 0.02
0.06 0.06 0.04 0.04 0.04 0.04 0.04 0.04 0.03 0.02 0.01 0.02 0.02 0.01 0.01 0.01 0.01 0.01 0.01 0.01 0.01 0.01 0.01 0.00 0.00 0.00 0.00 0.00 0.01 0.01 0.00 0.01 0.01 0.01 0.01 0.01 0.01 0.01 0.01 0.02 0.02 0.02 0.02
0.05 0.07 0.06 0.05 0.04 0.04 0.04 0.04 0.03 0.02 0.02 0.01 0.02 0.02 0.01 0.01 0.01 0.02 0.02 0.02 0.01 0.01 0.01 0.01 0.01 0.00 0.00 0.00 0.00 0.00 0.00 0.00 0.01 0.01 0.01 0.01 0.01 0.01 0.01 0.01 0.01 0.01 0.02
0.04 0.04 0.05 0.05 0.04 0.04 0.04 0.04 0.03 0.03 0.02 0.02 0.02 0.02 0.01 0.01 0.01 0.01 0.02 0.03 0.03 0.03 0.02 0.01 0.01 0.00 0.00 0.00 0.00 0.00 0.01 0.01 0.01 0.01 0.01 0.01 0.02 0.01 0.01 0.01 0.01 0.01 0.01
0.04 0.03 0.03 0.03 0.03 0.03 0.04 0.05 0.04 0.04 0.03 0.02 0.02 0.02 0.02 0.01 0.01 0.02 0.02 0.02 0.03 0.02 0.02 0.02 0.01 0.00 0.00 0.00 0.00 0.01 0.01 0.01 0.01 0.01 0.01 0.01 0.02 0.02 0.02 0.02 0.02 0.02 0.01
0.03 0.03 0.03 0.02 0.02 0.02 0.03 0.04 0.04 0.04 0.03 0.03 0.02 0.02 0.02 0.02 0.02 0.02 0.02 0.02 0.02 0.02 0.02 0.02 0.02 0.01 0.01 0.01 0.01 0.01 0.01 0.01 0.01 0.00 0.01 0.01 0.02 0.02 0.02 0.02 0.02 0.02 0.02
0.03 0.03 0.02 0.02 0.02 0.02 0.03 0.03 0.03 0.03 0.03 0.02 0.02 0.02 0.02 0.02 0.02 0.02 0.02 0.02 0.02 0.02 0.02 0.02 0.01 0.01 0.01 0.01 0.01 0.01 0.01 0.01 0.01 0.01 0.01 0.01 0.01 0.01 0.02 0.03 0.03 0.03 0.03
0.03 0.03 0.03 0.02 0.02 0.03 0.03 0.03 0.03 0.03 0.02 0.02 0.02 0.02 0.02 0.02 0.02 0.02 0.02 0.02 0.02 0.02 0.02 0.02 0.02 0.01 0.01 0.01 0.01 0.01 0.01 0.01 0.02 0.01 0.01 0.01 0.02 0.02 0.02 0.03 0.03 0.03 0.03
0.05 0.05 0.04 0.03 0.03 0.03 0.04 0.04 0.04 0.03 0.03 0.02 0.02 0.02 0.02 0.02 0.02 0.01 0.02 0.01 0.01 0.02 0.02 0.02 0.03 0.02 0.02 0.01 0.01 0.01 0.01 0.02 0.02 0.01 0.02 0.02 0.02 0.02 0.02 0.02 0.02 0.02 0.02
0.07 0.06 0.05 0.04 0.03 0.03 0.04 0.04 0.04 0.03 0.03 0.02 0.02 0.02 0.02 0.02 0.02 0.02 0.02 0.01 0.01 0.01 0.01 0.02 0.02 0.02 0.02 0.01 0.01 0.02 0.02 0.02 0.01 0.01 0.01 0.02 0.02 0.02 0.02 0.02 0.02 0.03 0.03
0.07 0.06 0.05 0.04 0.03 0.04 0.04 0.04 0.04 0.03 0.03 0.03 0.02 0.02 0.02 0.02 0.02 0.02 0.02 0.02 0.02 0.02 0.02 0.02 0.02 0.02 0.02 0.02 0.02 0.02 0.02 0.02 0.02 0.01 0.02 0.02 0.02 0.02 0.02 0.02 0.03 0.04 0.04
0.05 0.05 0.05 0.04 0.03 0.04 0.04 0.04 0.03 0.03 0.03 0.02 0.02 0.01 0.01 0.02 0.02 0.02 0.02 0.02 0.03 0.03 0.02 0.02 0.02 0.02 0.01 0.01 0.02 0.02 0.03 0.03 0.03 0.02 0.02 0.02 0.03 0.03 0.03 0.03 0.04 0.05 0.05
MSLP
1015.75 1015.68 1015.57 1015.46 1015.38 1015.35 1015.38 1015.45 1015.54 1015.59 1015.59 1015.49 1015.31 1015.04 1014.73 1014.40 1014.09 1013.83 1013.64 1013.54 1013.52 1013.59 1013.73 1013.96 1014.26 1014.62 1015.02 1015.45 1015.87 1016.27 1016.61 1016.89 1017.08 1017.20 1017.25 1017.26 1017.22 1017.15 1017.05 1016.92 1016.73 1016.50 1016.21
1015.70 1015.64 1015.55 1015.45 1015.39 1015.39 1015.44 1015.52 1015.61 1015.67 1015.66 1015.57 1015.39 1015.13 1014.82 1014.49 1014.16 1013.88 1013.65 1013.50 1013.43 1013.45 1013.54 1013.72 1013.99 1014.32 1014.71 1015.14 1015.58 1016.00 1016.37 1016.69 1016.93 1017.10 1017.20 1017.25 1017.25 1017.21 1017.13 1017.00 1016.81 1016.56 1016.25
1015.61 1015.57 1015.51 1015.46 1015.45 1015.48 1015.56 1015.66 1015.75 1015.80 1015.78 1015.68 1015.50 1015.24 1014.93 1014.60 1014.27 1013.97 1013.72 1013.52 1013.40 1013.36 1013.40 1013.53 1013.74 1014.04 1014.41 1014.83 1015.26 1015.69 1016.09 1016.44 1016.72 1016.94 1017.09 1017.19 1017.24 1017.24 1017.18 1017.07 1016.89 1016.63 1016.32
1015.51 1015.50 1015.49 1015.50 1015.56 1015.64 1015.75 1015.86 1015.95 1015.98 1015.93 1015.81 1015.61 1015.35 1015.04 1014.71 1014.38 1014.07 1013.80 1013.57 1013.40 1013.30 1013.29 1013.36 1013.52 1013.78 1014.12 1014.51 1014.94 1015.37 1015.78 1016.15 1016.47 1016.73 1016.93 1017.08 1017.18 1017.23 1017.21 1017.13 1016.97 1016.72 1016.40
1015.43 1015.47 1015.52 1015.60 1015.72 1015.85 1015.99 1016.11 1016.17 1016.17 1016.09 1015.93 1015.70 1015.43 1015.13 1014.80 1014.48 1014.17 1013.88 1013.63 1013.42 1013.27 1013.20 1013.21 1013.33 1013.55 1013.85 1014.21 1014.62 1015.05 1015.46 1015.84 1016.18 1016.48 1016.72 1016.93 1017.08 1017.18 1017.21 1017.17 1017.03 1016.81 1016.50
1015.41 1015.49 1015.59 1015.74 1015.91 1016.09 1016.24 1016.34 1016.38 1016.33 1016.20 1016.01 1015.76 1015.48 1015.18 1014.87 1014.56 1014.26 1013.96 1013.69 1013.45 1013.26 1013.14 1013.10 1013.17 1013.34 1013.60 1013.93 1014.32 1014.73 1015.13 1015.52 1015.87 1016.20 1016.48 1016.73 1016.93 1017.09 1017.17 1017.18 1017.08 1016.89 1016.60
1015.45 1015.55 1015.71 1015.90 1016.11 1016.31 1016.46 1016.54 1016.53 1016.44 1016.27 1016.04 1015.77 1015.49 1015.21 1014.92 1014.64 1014.35 1014.06 1013.77 1013.50 1013.27 1013.10 1013.02 1013.04 1013.16 1013.38 1013.68 1014.04 1014.42 1014.81 1015.20 1015.56 1015.90 1016.21 1016.50 1016.76 1016.96 1017.11 1017.16 1017.12 1016.96 1016.70
1015.52 1015.64 1015.83 1016.05 1016.28 1016.48 1016.62 1016.67 1016.62 1016.49 1016.28 1016.04 1015.77 1015.50 1015.24 1014.99 1014.73 1014.47 1014.18 1013.89 1013.59 1013.33 1013.11 1012.98 1012.95 1013.02 1013.20 1013.46 1013.78 1014.14 1014.51 1014.88 1015.24 1015.59 1015.93 1016.25 1016.55 1016.81 1017.01 1017.12 1017.13 1017.02 1016.79
1015.59 1015.74 1015.94 1016.17 1016.41 1016.60 1016.72 1016.74 1016.66 1016.49 1016.27 1016.02 1015.77 1015.54 1015.32 1015.11 1014.89 1014.65 1014.37 1014.07 1013.75 1013.45 1013.19 1013.00 1012.92 1012.94 1013.07 1013.28 1013.56 1013.88 1014.22 1014.57 1014.92 1015.28 1015.64 1015.99 1016.34 1016.65 1016.90 1017.07 1017.13 1017.06 1016.88
1015.65 1015.81 1016.02 1016.26 1016.49 1016.66 1016.76 1016.75 1016.66 1016.48 1016.27 1016.04 1015.83 1015.64 1015.47 1015.30 1015.12 1014.90 1014.64 1014.32 1013.98 1013.64 1013.33 1013.10 1012.95 1012.92 1012.99 1013.14 1013.37 1013.64 1013.94 1014.26 1014.60 1014.96 1015.33 1015.73 1016.12 1016.48 1016.79 1017.01 1017.12 1017.11 1016.96
1015.68 1015.86 1016.08 1016.31 1016.53 1016.69 1016.77 1016.75 1016.65 1016.48 1016.29 1016.10 1015.94 1015.80 1015.69 1015.57 1015.43 1015.23 1014.97 1014.64 1014.28 1013.90 1013.55 1013.26 1013.06 1012.96 1012.96 1013.05 1013.20 1013.41 1013.66 1013.95 1014.27 1014.63 1015.03 1015.45 1015.89 1016.31 1016.68 1016.96 1017.12 1017.15 1017.05
1015.68 1015.88 1016.11 1016.34 1016.55 1016.70 1016.76 1016.74 1016.65 1016.51 1016.35 1016.21 1016.09 1016.01 1015.95 1015.88 1015.76 1015.58 1015.33 1014.99 1014.61 1014.21 1013.82 1013.48 1013.22 1013.06 1012.99 1013.00 1013.08 1013.22 1013.41 1013.65 1013.94 1014.29 1014.71 1015.17 1015.66 1016.14 1016.57 1016.91 1017.13 1017.21 1017.15
1015.67 1015.89 1016.13 1016.36 1016.55 1016.69 1016.75 1016.73 1016.65 1016.54 1016.43 1016.33 1016.27 1016.23 1016.20 1016.16 1016.07 1015.90 1015.65 1015.32 1014.93 1014.52 1014.11 1013.74 1013.44 1013.22 1013.08 1013.01 1013.00 1013.05 1013.17 1013.35 1013.61 1013.96 1014.39 1014.89 1015.43 1015.97 1016.48 1016.89 1017.17 1017.30 1017.27
1015.66 1015.90 1016.14 1016.36 1016.54 1016.67 1016.73 1016.71 1016.65 1016.57 1016.49 1016.43 1016.40 1016.39 1016.38 1016.36 1016.28 1016.12 1015.88 1015.57 1015.19 1014.79 1014.39 1014.01 1013.69 1013.42 1013.22 1013.07 1012.97 1012.94 1012.97 1013.09 1013.30 1013.63 1014.07 1014.61 1015.20 1015.81 1016.39 1016.87 1017.22 1017.40 1017.42
1015.68 1015.92 1016.14 1016.35 1016.52 1016.62 1016.67 1016.67 1016.62 1016.56 1016.50 1016.46 1016.44 1016.44 1016.44 1016.42 1016.34 1016.19 1015.98 1015.69 1015.35 1014.99 1014.62 1014.27 1013.95 1013.66 1013.41 1013.19 1013.01 1012.89 1012.84 1012.88 1013.04 1013.34 1013.79 1014.35 1014.99 1015.67 1016.31 1016.87 1017.28 1017.53 1017.60
1015.71 1015.94 1016.15 1016.32 1016.46 1016.55 1016.59 1016.58 1016.54 1016.49 1016.44 1016.40 1016.38 1016.37 1016.36 1016.32 1016.24 1016.10 1015.91 1015.67 1015.39 1015.09 1014.79 1014.49 1014.20 1013.92 1013.64 1013.37 1013.13 1012.92 1012.78 1012.75 1012.85 1013.12 1013.56 1014.13 1014.82 1015.55 1016.26 1016.88 1017.36 1017.67 1017.79
1015.77 1015.97 1016.14 1016.28 1016.39 1016.45 1016.47 1016.46 1016.42 1016.37 1016.32 1016.27 1016.23 1016.20 1016.15 1016.09 1016.00 1015.87 1015.70 1015.52 1015.31 1015.10 1014.88 1014.66 1014.43 1014.18 1013.90 1013.61 1013.31 1013.03 1012.82 1012.72 1012.77 1013.00 1013.41 1013.99 1014.70 1015.47 1016.23 1016.91 1017.45 1017.81 1017.98
1015.85 1016.01 1016.13 1016.23 1016.30 1016.34 1016.35 1016.33 1016.30 1016.24 1016.18 1016.12 1016.05 1015.97 1015.89 1015.79 1015.68 1015.55 1015.42 1015.29 1015.16 1015.03 1014.91 1014.77 1014.61 1014.41 1014.16 1013.86 1013.53 1013.22 1012.96 1012.80 1012.80 1012.99 1013.38 1013.95 1014.66 1015.45 1016.24 1016.95 1017.54 1017.94 1018.16
1015.94 1016.05 1016.13 1016.19 1016.23 1016.26 1016.26 1016.24 1016.20 1016.15 1016.08 1015.99 1015.89 1015.78 1015.65 1015.51 1015.37 1015.24 1015.12 1015.03 1014.96 1014.91 1014.87 1014.82 1014.73 1014.59 1014.37 1014.09 1013.77 1013.44 1013.15 1012.97 1012.94 1013.10 1013.47 1014.02 1014.72 1015.50 1016.30 1017.03 1017.64 1018.08 1018.33
1016.03 1016.11 1016.16 1016.20 1016.22 1016.24 1016.24 1016.22 1016.19 1016.13 1016.05 1015.95 1015.82 1015.67 1015.50 1015.32 1015.15 1014.99 1014.87 1014.80 1014.76 1014.76 1014.78 1014.78 1014.76 1014.66 1014.49 1014.25 1013.95 1013.64 1013.36 1013.18 1013.15 1013.30 1013.65 1014.19 1014.87 1015.64 1016.42 1017.15 1017.76 1018.21 1018.48
1016.13 1016.20 1016.24 1016.27 1016.30 1016.31 1016.32 1016.31 1016.28 1016.22 1016.14 1016.02 1015.86 1015.68 1015.47 1015.25 1015.04 1014.85 1014.71 1014.62 1014.58 1014.59 1014.62 1014.65 1014.65 1014.59 1014.46 1014.26 1014.01 1013.74 1013.51 1013.37 1013.37 1013.54 1013.90 1014.43 1015.09 1015.84 1016.60 1017.30 1017.90 1018.35 1018.63
1016.24 1016.33 1016.39 1016.44 1016.47 1016.49 1016.50 1016.50 1016.47 1016.41 1016.32 1016.19 1016.01 1015.80 1015.56 1015.31 1015.06 1014.83 1014.64 1014.50 1014.42 1014.39 1014.39 1014.40 1014.39 1014.33 1014.23 1014.06 1013.87 1013.67 1013.51 1013.44 1013.50 1013.73 1014.12 1014.67 1015.33 1016.06 1016.80 1017.48 1018.05 1018.49 1018.77
1016.37 1016.51 1016.61 1016.68 1016.73 1016.76 1016.77 1016.76 1016.73 1016.66 1016.56 1016.41 1016.22 1016.00 1015.73 1015.45 1015.16 1014.88 1014.64 1014.43 1014.27 1014.16 1014.08 1014.01 1013.95 1013.86 1013.75 1013.61 1013.47 1013.34 1013.28 1013.31 1013.47 1013.78 1014.24 1014.84 1015.52 1016.25 1016.98 1017.64 1018.20 1018.62 1018.91
1016.51 1016.72 1016.88 1016.99 1017.05 1017.08 1017.08 1017.05 1016.99 1016.90 1016.78 1016.63 1016.43 1016.20 1015.93 1015.63 1015.31 1014.98 1014.67 1014.38 1014.11 1013.88 1013.68 1013.50 1013.33 1013.17 1013.02 1012.88 1012.78 1012.73 1012.76 1012.91 1013.20 1013.62 1014.18 1014.84 1015.58 1016.34 1017.08 1017.74 1018.29 1018.72 1019.02
1016.64 1016.94 1017.15 1017.30 1017.37 1017.39 1017.36 1017.30 1017.20 1017.08 1016.94 1016.77 1016.58 1016.35 1016.09 1015.79 1015.45 1015.09 1014.71 1014.33 1013.95 1013.58 1013.23 1012.89 1012.59 1012.32 1012.09 1011.92 1011.83 1011.84 1011.96 1012.22 1012.64 1013.19 1013.86 1014.62 1015.44 1016.25 1017.03 1017.72 1018.29 1018.74 1019.07
1016.73 1017.12 1017.39 1017.56 1017.64 1017.64 1017.57 1017.46 1017.32 1017.17 1017.00 1016.83 1016.64 1016.43 1016.19 1015.91 1015.58 1015.20 1014.77 1014.30 1013.81 1013.29 1012.77 1012.27 1011.81 1011.40 1011.06 1010.82 1010.71 1010.74 1010.93 1011.29 1011.82 1012.49 1013.28 1014.15 1015.06 1015.95 1016.79 1017.53 1018.15 1018.65 1019.02
Thickness
5652 5652 5653 5653 5653 5653 5652 5651 5650 5649 5649 5648 5648 5648 5647 5648 5648 5648 5648 5648 5648 5648 5648 5648 5648 5647 5646 5645 5644 5643 5642 5640 5639 5637 5636 5635 5634 5633 5632 5631 5630 5628 5627
5645 5645 5645 5645 5645 5645 5644 5643 5642 5642 5641 5641 5641 5641 5641 5640 5640 5640 5640 5640 5640 5640 5640 5640 5640 5640 5639 5638 5637 5636 5635 5634 5632 5631 5629 5628 5627 5626 5625 5624 5623 5621 5620
5636 5637 5637 5636 5636 5636 5635 5635 5634 5633 5633 5633 5633 5633 5633 5633 5633 5633 5633 5633 5632 5632 5632 5632 5632 5632 5631 5630 5629 5628 5627 5626 5625 5624 5622 5621 5620 5619 5618 5616 5615 5613 5612
5628 5628 5628 5628 5628 5627 5626 5625 5625 5624 5623 5623 5623 5624 5624 5625 5625 5625 5624 5624 5624 5623 5623 5623 5623 5623 5623 5622 5621 5620 5619 5619 5618 5616 5615 5614 5613 5612 5610 5609 5607 5606 5605
5618 5618 5619 5619 5619 5617 5617 5617 5615 5615 5614 5613 5614 5614 5615 5615 5615 5616 5615 5615 5615 5615 5614 5614 5613 5613 5613 5613 5613 5612 5611 5611 5610 5609 5608 5606 5605 5603 5602 5601 5600 5598 5597
5608 5609 5609 5609 5609 5608 5607 5607 5605 5604 5604 5604 5604 5604 5605 5605 5606 5606 5606 5606 5606 5605 5604 5604 5604 5603 5603 5603 5603 5603 5603 5602 5601 5600 5599 5598 5596 5595 5593 5592 5592 5591 5589
5598 5598 5599 5599 5599 5599 5598 5597 5596 5594 5593 5593 5592 5592 5594 5595 5595 5596 5596 5596 5596 5595 5594 5594 5594 5593 5593 5593 5593 5593 5593 5593 5593 5592 5591 5589 5588 5586 5585 5584 5583 5582 5581
5587 5588 5588 5588 5588 5588 5588 5587 5585 5583 5583 5583 5582 5580 5580 5583 5584 5586 5585 5585 5585 5585 5584 5583 5583 5583 5583 5582 5582 5582 5582 5582 5583 5582 5582 5580 5579 5578 5577 5576 5574 5573 5572
5576 5577 5578 5578 5577 5578 5578 5577 5575 5575 5573 5572 5572 5571 5570 5571 5571 5574 5575 5575 5575 5574 5574 5572 5572 5572 5572 5571 5571 5571 5571 5571 5572 5572 5572 5571 5570 5569 5567 5566 5565 5564 5563
5564 5565 5567 5567 5567 5567 5567 5567 5566 5565 5564 5562 5561 5561 5561 5561 5559 5560 5563 5564 5564 5564 5563 5563 5562 5561 5561 5560 5560 5560 5560 5560 5560 5560 5560 5560 5560 5559 5558 5557 5556 5555 5554
5553 5554 5555 5555 5556 5556 5557 5558 5558 5557 5555 5554 5552 5551 5550 5549 5548 5547 5550 5551 5551 5553 5553 5553 5552 5551 5550 5549 5549 5549 5549 5548 5548 5548 5548 5548 5548 5547 5547 5546 5546 5545 5545
5541 5543 5544 5544 5545 5546 5546 5547 5548 5547 5545 5544 5543 5543 5542 5540 5538 5537 5537 5538 5539 5541 5542 5542 5542 5541 5540 5539 5538 5538 5538 5537 5536 5536 5536 5536 5536 5536 5535 5535 5535 5535 5535
5528 5530 5533 5533 5534 5535 5536 5537 5537 5537 5536 5535 5534 5534 5533 5533 5531 5529 5527 5526 5526 5528 5530 5531 5530 5530 5529 5528 5527 5527 5526 5526 5525 5525 5524 5524 5524 5524 5524 5524 5524 5524 5524
5516 5518 5521 5522 5523 5524 5525 5525 5526 5526 5526 5525 5525 5524 5523 5522 5521 5520 5517 5515 5514 5516 5518 5519 5519 5518 5517 5516 5515 5515 5514 5514 5514 5513 5513 5512 5512 5512 5512 5512 5513 5512 5512
5505 5507 5509 5511 5512 5513 5514 5514 5514 5515 5515 5515 5515 5514 5513 5512 5511 5509 5508 5506 5504 5504 5508 5508 5506 5506 5505 5504 5503 5503 5503 5502 5502 5501 5501 5501 5501 5501 5501 5501 5501 5501 5501
5494 5497 5498 5499 5501 5502 5503 5503 5503 5504 5504 5505 5504 5503 5502 5501 5500 5498 5497 5495 5493 5493 5494 5497 5494 5493 5492 5492 5491 5490 5490 5489 5489 5489 5489 5489 5489 5489 5489 5489 5489 5490 5490
5484 5485 5488 5489 5490 5492 5492 5492 5492 5493 5493 5494 5493 5492 5491 5490 5488 5487 5485 5484 5482 5481 5481 5484 5481 5481 5479 5479 5479 5478 5477 5477 5477 5477 5477 5478 5478 5477 5478 5478 5479 5479 5479
5473 5475 5476 5478 5479 5480 5481 5481 5481 5481 5482 5482 5481 5480 5479 5478 5476 5475 5474 5473 5471 5470 5469 5471 5470 5468 5467 5466 5465 5464 5464 5464 5465 5465 5465 5466 5466 5466 5466 5467 5467 5467 5467
5462 5464 5465 5465 5467 5468 5469 5470 5470 5470 5470 5470 5470 5468 5468 5467 5465 5464 5463 5462 5460 5459 5457 5457 5457 5456 5454 5453 5452 5452 5452 5452 5453 5453 5454 5454 5454 5455 5455 5455 5456 5456 5457
5451 5452 5452 5453 5455 5456 5457 5458 5458 5458 5458 5457 5457 5456 5455 5455 5454 5453 5453 5451 5450 5447 5446 5445 5445 5443 5442 5440 5439 5439 5440 5441 5441 5442 5443 5443 5443 5443 5444 5445 5446 5446 5447
5439 5439 5440 5441 5442 5443 5444 5445 5445 5446 5446 5445 5444 5444 5443 5443 5443 5443 5442 5441 5439 5437 5435 5434 5433 5432 5430 5429 5428 5428 5428 5429 5430 5431 5431 5433 5433 5433 5433 5434 5435 5436 5437
5427 5427 5427 5428 5429 5430 5431 5433 5434 5434 5434 5433 5433 5432 5431 5431 5432 5432 5432 5431 5430 5428 5426 5424 5423 5422 5422 5420 5419 5417 5416 5417 5419 5420 5419 5422 5422 5423 5424 5425 5426 5427 5429
5415 5415 5416 5416 5417 5417 5420 5421 5422 5422 5421 5421 5421 5420 5420 5420 5420 5420 5420 5420 5419 5418 5417 5416 5415 5414 5413 5412 5410 5409 5408 5407 5408 5409 5408 5412 5413 5413 5415 5417 5418 5419 5421
5403 5403 5404 5404 5405 5406 5409 5411 5411 5410 5410 5410 5409 5409 5409 5409 5410 5410 5410 5409 5408 5408 5407 5406 5406 5405 5404 5403 5402 5401 5400 5399 5400 5400 5400 5401 5404 5405 5407 5408 5410 5412 5414
5392 5393 5394 5394 5395 5396 5398 5400 5401 5399 5399 5399 5399 5399 5400 5400 5401 5401 5400 5400 5399 5398 5398 5397 5397 5397 5396 5396 5395 5393 5393 5392 5393 5394 5393 5392 5395 5396 5399 5401 5403 5405 5407
5383 5384 5384 5384 5385 5386 5388 5389 5391 5390 5390 5389 5389 5390 5390 5391 5392 5391 5391 5390 5390 5389 5388 5388 5388 5388 5388 5388 5387 5386 5386 5385 5385 5386 5386 5385 5386 5387 5390 5395 5396 5397 5399